User: anonymous   Login
Location: ??????
(42.0089°N, 44.3281°E)
Time: 07:16:45
(UTC+00:00)
Language:

H-2A R/B - Orbit

View from above orbital plane
View from above orbital plane
View from above satellite
View from above satellite

Ground track
Ground track

The orbit data is extracted from the following two-line orbital elements,

1 27601U 02056E   22023.92238576  .00000009  00000-0  18088-4 0  9998
2 27601  98.1801  38.7724 0071517 333.3266  86.0129 14.32029776998488
Epoch (UTC): 23 January 2022 22:08:14
Eccentricity: 0.0071517
inclination: 98.1801°
perigee height: 734 km
apogee height: 836 km
right ascension of ascending node: 38.7724°
argument of perigee: 333.3266°
revolutions per day: 14.32029776
mean anomaly at epoch: 86.0129°
orbit number at epoch: 99848

The dashed part of the orbit path shows where the satellite is in the earth's shadow,  

DLR